Voltar ao catálogo

DELTA 1 DEB

AtivoLEO
NORAD 14905·DEBRIS·🇺🇸 United States

Lançado Jul 29, 1976 de Vandenberg Space Force Base

Loading…

Próximas Passagens (próximas 24 horas)

TLE

AtualizadoSource: Space-Track

Época: Sep 14, 2026, 03:18 UTC

1 14905U 76077ET  26257.13812976  .00000176  00000-0  23504-2 0  9995
2 14905 102.2481 308.2934 0184165 215.9383 165.4058 12.07388944929098

Acompanhe DELTA 1 DEB em tempo real com AllMySat

Download on the App Store